FALCON 9 DEB (48337 NORAD) Tracking and Keplerian Element Data

This shows tracking and keplerian element data for the satellite.

Feedback or suggestion? Click here.




ElementValue
Catalog48337
NameFALCON 9 DEB
Epoch Orbit499
Epoch Day149.10964201
Epoch Year2021
RAAN13.2257
Inclination53.046
Eccentricity0.0007971
Argument of Perigee262.2526
Mean Anonmoly97.7617
Mean Motion16.43500627
Decay Rate0.07259672
L11 48337U 21036BP 21149.10964201 .07259672 12440-4 27694-3 0 9991
L22 48337 53.0460 13.2257 0007971 262.2526 97.7617 16.43500627 4997

Live tracking and technical data element details for FALCON 9 DEB (NORAD 48337). FALCON 9 DEB can be tracked NOW for your location showing map with azimuth and elevation plus other details from your city location.

Track the satellite on the map from your city or location and see movement details for azimuth, elevation, latitude, longitude, range, height, and movement on the map or in text.







IsCatalogInMostPopularTable: catalog: 48337, numindb: 32
Update: records affected: 1



GetName: 48337 FALCON 9 DEB

Hit Count: updated at: Wed, 04 Aug 2021 00:05:25 GMT